When you browse on this site, cookies collect data to enhance your experience and personalize the content and advertising you see.
Visit our Privacy Policy to learn more. By continuing to use the site, you agree to this use of cookies and data.
  • In Denmark
  • List of Countries
  • For 7 days
  • Water Temperature
  • Satellite Maps
  • Weather Map
  • Weather Widgets
  • user-avatar
    Login

    Hourly Weather Yasenki

    Today, 26 May, Sunday

    Time Temperature Precipitation Wind Pressure Humidity
    00:00 +14°C° 0 mm 2 mps 735 mmHg 96%
    01:00 +13°C° 0 mm 2 mps 735 mmHg 96%
    02:00 +13°C° 0 mm 2 mps 734 mmHg 96%
    03:00 +13°C° 0 mm 2 mps 734 mmHg 97%
    04:00 +13°C° 0 mm 2 mps 734 mmHg 96%
    05:00 +13°C° 0 mm 1 mps 734 mmHg 96%
    06:00 +14°C° 0 mm 1 mps 734 mmHg 95%
    07:00 +15°C° 0 mm 1 mps 734 mmHg 91%
    08:00 +18°C° 0 mm 1 mps 734 mmHg 86%
    09:00 +19°C° 0 mm 1 mps 734 mmHg 81%
    10:00 +20°C° 0.4 mm 1 mps 734 mmHg 77%
    11:00 +21°C° 0.4 mm 1 mps 734 mmHg 73%
    12:00 +22°C° 0.4 mm 1 mps 734 mmHg 69%
    13:00 +22°C° 1.2 mm 1 mps 734 mmHg 69%
    14:00 +21°C° 1.2 mm 2 mps 734 mmHg 70%
    15:00 +21°C° 1.2 mm 2 mps 734 mmHg 70%
    16:00 +21°C° 0.9 mm 2 mps 734 mmHg 71%
    17:00 +21°C° 0.9 mm 2 mps 733 mmHg 72%
    18:00 +21°C° 0.9 mm 2 mps 733 mmHg 72%
    19:00 +19°C° 0 mm 2 mps 734 mmHg 76%
    20:00 +18°C° 0 mm 2 mps 734 mmHg 80%
    21:00 +16°C° 0 mm 3 mps 734 mmHg 84%
    22:00 +14°C° 0 mm 3 mps 734 mmHg 86%
    23:00 +13°C° 0 mm 3 mps 734 mmHg 87%

    Tomorrow, 27 May, Monday

    Time Temperature Precipitation Wind Pressure Humidity
    00:00 +12°C° 0 mm 4 mps 735 mmHg 89%
    01:00 +12°C° 0 mm 3 mps 735 mmHg 90%
    02:00 +11°C° 0 mm 3 mps 735 mmHg 91%
    03:00 +10°C° 0 mm 3 mps 736 mmHg 91%
    04:00 +11°C° 0 mm 3 mps 736 mmHg 91%
    05:00 +11°C° 0 mm 4 mps 737 mmHg 90%
    06:00 +11°C° 0 mm 4 mps 737 mmHg 90%
    07:00 +12°C° 0 mm 4 mps 737 mmHg 84%
    08:00 +14°C° 0 mm 4 mps 738 mmHg 79%
    09:00 +15°C° 0 mm 4 mps 738 mmHg 73%
    10:00 +17°C° 0 mm 4 mps 739 mmHg 71%
    11:00 +17°C° 0 mm 5 mps 739 mmHg 68%
    12:00 +19°C° 0 mm 5 mps 739 mmHg 65%
    13:00 +19°C° 0 mm 5 mps 739 mmHg 64%
    14:00 +20°C° 0 mm 5 mps 740 mmHg 62%
    15:00 +20°C° 0 mm 5 mps 740 mmHg 61%
    16:00 +20°C° 0 mm 4 mps 740 mmHg 63%
    17:00 +20°C° 0 mm 4 mps 740 mmHg 65%
    18:00 +20°C° 0 mm 3 mps 740 mmHg 68%
    19:00 +19°C° 0 mm 3 mps 740 mmHg 73%
    20:00 +17°C° 0 mm 3 mps 741 mmHg 78%
    21:00 +16°C° 0 mm 3 mps 741 mmHg 84%
    22:00 +14°C° 0 mm 3 mps 741 mmHg 85%
    23:00 +14°C° 0 mm 3 mps 741 mmHg 87%

    Day after tomorrow, 28 May, Tuesday

    Time Temperature Precipitation Wind Pressure Humidity
    00:00 +13°C° 0 mm 3 mps 741 mmHg 89%
    01:00 +13°C° 0 mm 3 mps 741 mmHg 90%
    02:00 +13°C° 0 mm 3 mps 742 mmHg 91%
    03:00 +13°C° 0 mm 4 mps 742 mmHg 92%
    04:00 +13°C° 0 mm 4 mps 742 mmHg 92%
    05:00 +14°C° 0 mm 4 mps 742 mmHg 91%
    06:00 +15°C° 0 mm 4 mps 742 mmHg 91%
    07:00 +17°C° 0 mm 4 mps 742 mmHg 87%
    08:00 +19°C° 0 mm 4 mps 742 mmHg 83%
    09:00 +21°C° 0 mm 5 mps 742 mmHg 79%
    10:00 +22°C° 0.2 mm 5 mps 742 mmHg 75%
    11:00 +23°C° 0.2 mm 5 mps 743 mmHg 72%
    12:00 +25°C° 0.2 mm 5 mps 743 mmHg 69%
    13:00 +26°C° 0.1 mm 5 mps 743 mmHg 67%
    14:00 +26°C° 0.1 mm 5 mps 743 mmHg 65%
    15:00 +27°C° 0.1 mm 5 mps 743 mmHg 64%
    16:00 +26°C° 0.1 mm 5 mps 742 mmHg 67%
    17:00 +26°C° 0.1 mm 4 mps 742 mmHg 71%
    18:00 +25°C° 0.1 mm 3 mps 742 mmHg 74%
    19:00 +24°C° 0 mm 3 mps 742 mmHg 79%
    20:00 +21°C° 0 mm 3 mps 742 mmHg 84%
    21:00 +20°C° 0 mm 3 mps 743 mmHg 88%
    22:00 +19°C° 0 mm 3 mps 743 mmHg 90%
    23:00 +19°C° 0 mm 3 mps 743 mmHg 91%

    29 May, Wednesday

    Time Temperature Precipitation Wind Pressure Humidity
    00:00 +18°C° 0 mm 3 mps 743 mmHg 92%
    01:00 +18°C° 0 mm 3 mps 743 mmHg 92%
    02:00 +17°C° 0 mm 3 mps 743 mmHg 93%
    03:00 +17°C° 0 mm 3 mps 743 mmHg 93%
    04:00 +18°C° 0 mm 3 mps 744 mmHg 92%
    05:00 +18°C° 0 mm 3 mps 744 mmHg 90%
    06:00 +18°C° 0 mm 3 mps 744 mmHg 89%
    07:00 +20°C° 0 mm 4 mps 744 mmHg 83%
    08:00 +22°C° 0 mm 4 mps 744 mmHg 77%
    09:00 +25°C° 0 mm 4 mps 744 mmHg 71%
    10:00 +25°C° 0 mm 5 mps 744 mmHg 68%
    11:00 +26°C° 0 mm 5 mps 744 mmHg 65%
    12:00 +27°C° 0 mm 5 mps 744 mmHg 61%
    13:00 +27°C° 0 mm 5 mps 744 mmHg 61%
    14:00 +28°C° 0 mm 5 mps 744 mmHg 61%
    15:00 +28°C° 0 mm 5 mps 744 mmHg 61%
    16:00 +27°C° 0.2 mm 4 mps 744 mmHg 65%
    17:00 +27°C° 0.2 mm 4 mps 744 mmHg 69%
    18:00 +26°C° 0.2 mm 3 mps 743 mmHg 73%
    19:00 +25°C° 0 mm 3 mps 743 mmHg 78%
    20:00 +22°C° 0 mm 3 mps 743 mmHg 82%
    21:00 +21°C° 0 mm 3 mps 743 mmHg 87%
    22:00 +20°C° 0 mm 3 mps 743 mmHg 89%
    23:00 +20°C° 0 mm 3 mps 743 mmHg 90%

    30 May, Thursday

    Time Temperature Precipitation Wind Pressure Humidity
    00:00 +19°C° 0 mm 3 mps 744 mmHg 92%
    01:00 +19°C° 0 mm 3 mps 744 mmHg 92%
    02:00 +18°C° 0 mm 3 mps 744 mmHg 93%
    03:00 +18°C° 0 mm 3 mps 744 mmHg 94%
    04:00 +18°C° 0 mm 3 mps 744 mmHg 92%
    05:00 +18°C° 0 mm 3 mps 744 mmHg 91%
    06:00 +19°C° 0 mm 3 mps 744 mmHg 90%
    07:00 +20°C° 0 mm 4 mps 744 mmHg 84%
    08:00 +22°C° 0 mm 4 mps 744 mmHg 78%
    09:00 +23°C° 0 mm 5 mps 744 mmHg 72%
    10:00 +25°C° 0 mm 5 mps 744 mmHg 68%
    11:00 +26°C° 0 mm 5 mps 744 mmHg 63%
    12:00 +27°C° 0 mm 5 mps 744 mmHg 58%
    13:00 +27°C° 0 mm 5 mps 744 mmHg 58%
    14:00 +27°C° 0 mm 5 mps 743 mmHg 58%
    15:00 +27°C° 0 mm 6 mps 743 mmHg 59%
    16:00 +27°C° 0 mm 5 mps 743 mmHg 62%
    17:00 +27°C° 0 mm 4 mps 743 mmHg 66%
    18:00 +26°C° 0 mm 4 mps 743 mmHg 69%
    19:00 +25°C° 0 mm 3 mps 743 mmHg 74%
    20:00 +22°C° 0 mm 3 mps 743 mmHg 78%
    21:00 +21°C° 0 mm 3 mps 743 mmHg 82%
    22:00 +20°C° 0 mm 3 mps 743 mmHg 84%
    23:00 +20°C° 0 mm 3 mps 743 mmHg 85%

    31 May, Friday

    Time Temperature Precipitation Wind Pressure Humidity
    00:00 +19°C° 0 mm 3 mps 743 mmHg 86%
    01:00 +19°C° 0 mm 3 mps 743 mmHg 87%
    02:00 +18°C° 0 mm 3 mps 743 mmHg 89%
    03:00 +18°C° 0 mm 3 mps 743 mmHg 90%
    04:00 +19°C° 0 mm 3 mps 743 mmHg 89%
    05:00 +19°C° 0 mm 4 mps 743 mmHg 87%
    06:00 +19°C° 0 mm 4 mps 743 mmHg 86%
    07:00 +21°C° 0 mm 4 mps 743 mmHg 81%
    08:00 +22°C° 0 mm 5 mps 743 mmHg 76%
    09:00 +25°C° 0 mm 5 mps 743 mmHg 71%
    10:00 +26°C° 0.2 mm 5 mps 743 mmHg 68%
    11:00 +27°C° 0.2 mm 5 mps 742 mmHg 64%
    12:00 +27°C° 0.2 mm 5 mps 742 mmHg 61%
    13:00 +27°C° 0.5 mm 5 mps 742 mmHg 61%
    14:00 +27°C° 0.5 mm 5 mps 742 mmHg 61%
    15:00 +27°C° 0.5 mm 4 mps 742 mmHg 62%
    16:00 +27°C° 1 mm 3 mps 742 mmHg 66%
    17:00 +26°C° 1 mm 3 mps 742 mmHg 70%
    18:00 +25°C° 1 mm 2 mps 742 mmHg 74%
    19:00 +24°C° 0.5 mm 2 mps 743 mmHg 78%
    20:00 +21°C° 0.5 mm 2 mps 743 mmHg 82%
    21:00 +20°C° 0.5 mm 2 mps 744 mmHg 86%
    22:00 +19°C° 0 mm 3 mps 744 mmHg 89%
    23:00 +18°C° 0 mm 3 mps 744 mmHg 92%
    Show more